�������l�o���
Date,Time,MP-1(��Sv/h),MP-2(��Sv/h),MP-3(��Sv/h),MP-4(��Sv/h),MP-5(��Sv/h),MP-6(��Sv/h),MP-7(��Sv/h),MP-8(��Sv/h),����,����(m/s),���J
2024/06/10,00:00,0.504,0.774,0.487,0.960,0.703,0.317,0.550,0.510,��,8.2,��
2024/06/10,00:10,0.504,0.777,0.488,0.960,0.704,0.316,0.551,0.509,��,7.0,��
2024/06/10,00:20,0.505,0.777,0.486,0.959,0.703,0.316,0.551,0.510,��,7.2,��
2024/06/10,00:30,0.503,0.776,0.488,0.958,0.702,0.315,0.552,0.510,��,8.8,��
2024/06/10,00:40,0.504,0.776,0.488,0.958,0.704,0.316,0.550,0.509,��,6.7,��
2024/06/10,00:50,0.504,0.778,0.487,0.959,0.704,0.316,0.551,0.509,��,6.2,��
2024/06/10,01:00,0.504,0.777,0.489,0.958,0.706,0.317,0.551,0.510,��,8.0,��
2024/06/10,01:10,0.504,0.778,0.487,0.958,0.703,0.316,0.551,0.509,��,7.7,��
2024/06/10,01:20,0.503,0.777,0.487,0.958,0.705,0.316,0.552,0.510,��,7.1,��
2024/06/10,01:30,0.504,0.780,0.488,0.958,0.707,0.317,0.552,0.509,��,5.7,��
2024/06/10,01:40,0.504,0.777,0.489,0.958,0.704,0.316,0.552,0.510,��,6.4,��
2024/06/10,01:50,0.503,0.776,0.487,0.957,0.704,0.316,0.552,0.510,��,6.4,��
2024/06/10,02:00,0.503,0.777,0.487,0.959,0.703,0.317,0.553,0.510,��,6.5,�L
2024/06/10,02:10,0.504,0.778,0.488,0.958,0.704,0.316,0.552,0.510,��,7.1,�L
2024/06/10,02:20,0.504,0.778,0.488,0.960,0.703,0.317,0.550,0.510,��,7.6,�L
2024/06/10,02:30,0.504,0.775,0.487,0.957,0.704,0.317,0.551,0.511,��,7.8,�L
2024/06/10,02:40,0.504,0.777,0.487,0.960,0.703,0.316,0.551,0.510,��,7.3,�L
2024/06/10,02:50,0.504,0.776,0.488,0.959,0.704,0.315,0.552,0.510,��,9.6,�L
2024/06/10,03:00,0.504,0.773,0.488,0.958,0.703,0.317,0.550,0.510,��,9.1,�L
2024/06/10,03:10,0.502,0.774,0.487,0.958,0.701,0.317,0.551,0.509,��,9.2,�L
2024/06/10,03:20,0.503,0.774,0.487,0.960,0.703,0.316,0.551,0.509,��,8.8,�L
2024/06/10,03:30,0.503,0.771,0.486,0.958,0.700,0.316,0.552,0.510,��,8.6,�L
2024/06/10,03:40,0.502,0.772,0.487,0.959,0.700,0.317,0.551,0.508,��,8.7,�L
2024/06/10,03:50,0.504,0.771,0.485,0.957,0.702,0.316,0.550,0.510,��,8.5,�L
2024/06/10,04:00,0.501,0.771,0.485,0.957,0.700,0.316,0.550,0.509,��,8.3,��
2024/06/10,04:10,0.502,0.772,0.486,0.958,0.699,0.317,0.550,0.508,��,7.9,��
2024/06/10,04:20,0.502,0.771,0.486,0.958,0.700,0.317,0.550,0.508,��,7.4,��
2024/06/10,04:30,0.502,0.771,0.484,0.958,0.700,0.316,0.551,0.509,��,7.9,�L
2024/06/10,04:40,0.502,0.772,0.485,0.956,0.699,0.316,0.549,0.509,��,7.5,�L
2024/06/10,04:50,0.502,0.772,0.484,0.957,0.700,0.316,0.551,0.510,��,7.8,�L
2024/06/10,05:00,0.501,0.773,0.487,0.958,0.698,0.315,0.550,0.511,��,8.5,�L
2024/06/10,05:10,0.502,0.772,0.486,0.957,0.700,0.315,0.549,0.510,��,7.6,�L
2024/06/10,05:20,0.503,0.772,0.485,0.959,0.703,0.315,0.550,0.509,��,8.6,�L
2024/06/10,05:30,0.501,0.774,0.485,0.956,0.701,0.315,0.550,0.510,��,7.4,�L
2024/06/10,05:40,0.501,0.774,0.485,0.958,0.702,0.313,0.548,0.508,��,7.4,�L
2024/06/10,05:50,0.501,0.772,0.483,0.957,0.700,0.315,0.550,0.510,��쐼,7.7,�L
2024/06/10,06:00,0.502,0.768,0.485,0.955,0.700,0.315,0.549,0.510,��쐼,8.4,�L
2024/06/10,06:10,0.500,0.771,0.483,0.955,0.699,0.315,0.551,0.509,��쐼,8.2,�L
2024/06/10,06:20,0.502,0.770,0.485,0.958,0.699,0.315,0.551,0.508,��쐼,7.8,�L
2024/06/10,06:30,0.502,0.772,0.485,0.957,0.698,0.315,0.549,0.508,��쐼,7.3,�L
2024/06/10,06:40,0.504,0.772,0.485,0.953,0.700,0.315,0.550,0.509,��쐼,7.2,�L
2024/06/10,06:50,0.503,0.772,0.484,0.955,0.702,0.315,0.550,0.508,��쐼,6.1,��
2024/06/10,07:00,0.501,0.770,0.484,0.956,0.701,0.314,0.550,0.508,��,6.5,�L
2024/06/10,07:10,0.502,0.771,0.484,0.955,0.700,0.314,0.548,0.508,��,5.6,�L
2024/06/10,07:20,0.501,0.771,0.483,0.956,0.701,0.313,0.549,0.509,��,5.5,�L
2024/06/10,07:30,0.499,0.768,0.483,0.956,0.698,0.314,0.550,0.508,��쐼,4.9,�L
2024/06/10,07:40,0.502,0.770,0.484,0.957,0.700,0.314,0.549,0.507,��쐼,5.4,�L
2024/06/10,07:50,0.501,0.769,0.482,0.956,0.700,0.314,0.548,0.507,��쐼,4.5,�L
2024/06/10,08:00,0.502,0.770,0.484,0.959,0.700,0.314,0.550,0.508,��,3.7,��
2024/06/10,08:10,0.501,0.769,0.484,0.957,0.700,0.312,0.550,0.507,��,4.0,��
2024/06/10,08:20,0.499,0.767,0.486,0.955,0.700,0.314,0.551,0.507,��쐼,4.5,��
2024/06/10,08:30,0.502,0.770,0.485,0.956,0.701,0.313,0.549,0.508,��,5.6,��
2024/06/10,08:40,0.501,0.767,0.484,0.956,0.700,0.314,0.550,0.508,��쐼,5.6,��
2024/06/10,08:50,0.502,0.768,0.485,0.957,0.697,0.314,0.551,0.508,��쐼,4.8,��
2024/06/10,09:00,0.501,0.768,0.484,0.956,0.698,0.314,0.549,0.506,��,5.1,��
2024/06/10,09:10,0.501,0.769,0.483,0.956,0.700,0.313,0.549,0.507,��,5.4,��
2024/06/10,09:20,0.501,0.770,0.485,0.957,0.698,0.315,0.550,0.507,��,5.0,��
2024/06/10,09:30,0.504,0.771,0.486,0.957,0.696,0.316,0.551,0.507,��,6.3,��
2024/06/10,09:40,0.502,0.767,0.482,0.957,0.697,0.315,0.552,0.509,��,6.7,��
2024/06/10,09:50,0.504,0.770,0.483,0.955,0.697,0.314,0.551,0.507,��,5.5,��
2024/06/10,10:00,0.505,0.767,0.485,0.957,0.700,0.314,0.552,0.508,��,5.5,��
2024/06/10,10:10,0.503,-,0.483,0.957,0.701,0.314,0.550,0.508,��쓌,6.4,��
2024/06/10,10:20,0.503,-,0.485,0.958,0.699,0.316,0.551,0.506,��쓌,6.7,��
2024/06/10,10:30,0.503,-,0.484,0.957,0.699,0.316,0.552,0.508,��쓌,7.4,��
2024/06/10,10:40,0.503,-,0.485,0.956,0.700,0.316,0.551,0.507,��쓌,7.5,��
2024/06/10,10:50,0.504,-,0.485,0.955,0.702,0.315,0.551,0.508,��쓌,7.8,��
2024/06/10,11:00,0.507,-,0.485,0.958,0.702,0.314,0.552,0.508,��쓌,8.1,��
2024/06/10,11:10,0.505,-,0.486,0.955,0.701,0.315,0.552,0.506,��쓌,7.0,��
2024/06/10,11:20,0.504,-,0.485,0.956,0.703,0.316,0.551,0.506,��쓌,8.2,��
2024/06/10,11:30,0.506,-,0.486,0.956,0.704,0.315,0.551,0.507,��쓌,8.0,��
2024/06/10,11:40,0.502,-,0.486,0.957,0.700,0.317,0.552,0.508,��쓌,7.5,��
2024/06/10,11:50,0.506,-,0.487,0.954,0.704,0.315,0.552,0.509,��쓌,8.5,��
2024/06/10,12:00,0.506,-,0.486,0.956,0.702,0.315,0.553,0.507,��쓌,8.7,��
2024/06/10,12:10,0.507,-,0.487,0.956,0.703,0.315,0.552,0.508,��,7.2,��
2024/06/10,12:20,0.507,-,0.487,0.955,0.702,0.316,0.554,0.509,��쓌,9.6,��
2024/06/10,12:30,0.505,-,0.485,0.957,0.704,0.316,0.552,0.509,��쓌,10.0,��
2024/06/10,12:40,0.505,-,0.487,0.958,0.703,0.317,0.554,0.508,��쓌,11.3,��
2024/06/10,12:50,0.507,-,0.486,0.958,0.702,0.316,0.554,0.510,��쓌,11.9,��
2024/06/10,13:00,0.504,-,0.487,0.955,0.705,0.315,0.551,0.508,��쓌,11.3,��
2024/06/10,13:10,0.504,-,0.487,0.957,0.702,0.315,0.551,0.509,��쓌,12.7,��
2024/06/10,13:20,0.505,0.775,0.487,0.956,0.703,0.316,0.552,0.509,��쓌,11.8,��
2024/06/10,13:30,0.506,0.775,0.486,0.957,0.705,0.316,0.551,0.508,��쓌,11.1,��
2024/06/10,13:40,0.505,0.777,0.485,0.957,0.704,0.316,0.553,0.508,��쓌,10.8,��
2024/06/10,13:50,0.507,0.777,0.487,0.955,0.704,0.317,0.552,0.508,��쓌,10.7,��
2024/06/10,14:00,0.503,0.778,0.488,0.956,0.704,0.316,0.552,0.510,��쓌,12.4,��
2024/06/10,14:10,0.504,0.777,0.487,0.959,0.705,0.317,0.553,0.509,��쓌,12.2,��
2024/06/10,14:20,0.505,0.779,0.487,0.960,0.704,0.316,0.553,0.509,��쓌,11.3,��
2024/06/10,14:30,0.506,0.777,0.487,0.958,0.704,0.316,0.553,0.509,��쓌,11.6,��
2024/06/10,14:40,0.505,0.778,0.487,0.958,0.703,0.316,0.552,0.508,��쓌,11.8,��
2024/06/10,14:50,0.506,0.777,0.487,0.958,0.704,0.316,0.552,0.508,��쓌,11.6,��
2024/06/10,15:00,0.506,0.777,0.487,0.957,0.705,0.317,0.552,0.510,��쓌,13.3,��
2024/06/10,15:10,0.507,0.776,0.487,0.958,0.705,0.317,0.553,0.509,��쓌,11.3,��
2024/06/10,15:20,0.507,0.779,0.486,0.960,0.705,0.315,0.550,0.508,��쓌,11.9,��
2024/06/10,15:30,0.505,0.776,0.486,0.958,0.703,0.317,0.552,0.508,��쓌,12.5,��
2024/06/10,15:40,0.505,0.777,0.488,0.958,0.705,0.316,0.551,0.508,��쓌,10.8,��
2024/06/10,15:50,0.506,0.776,0.488,0.957,0.704,0.316,0.552,0.509,��쓌,12.0,��
2024/06/10,16:00,0.506,0.776,0.488,0.959,0.704,0.316,0.550,0.509,��쓌,11.7,��
2024/06/10,16:10,0.505,0.777,0.488,0.959,0.705,0.316,0.550,0.508,��,10.6,��
2024/06/10,16:20,0.507,0.774,0.486,0.958,0.703,0.317,0.551,0.509,��쓌,10.2,��
2024/06/10,16:30,0.507,0.777,0.487,0.961,0.706,0.315,0.551,0.508,��,8.0,��
2024/06/10,16:40,0.506,0.776,0.487,0.962,0.703,0.317,0.553,0.507,��쓌,10.5,��
2024/06/10,16:50,0.504,0.775,0.487,0.961,0.705,0.314,0.550,0.507,��쓌,10.2,��
2024/06/10,17:00,0.505,0.777,0.487,0.962,0.705,0.316,0.550,0.509,��쓌,10.2,��
2024/06/10,17:10,0.506,0.776,0.487,0.962,0.704,0.317,0.552,0.510,��,10.8,��
2024/06/10,17:20,0.504,0.777,0.487,0.961,0.705,0.316,0.551,0.509,��,9.4,��
2024/06/10,17:30,0.506,0.776,0.486,0.962,0.704,0.316,0.551,0.508,��,10.2,��
2024/06/10,17:40,0.505,0.777,0.488,0.959,0.704,0.317,0.552,0.509,��쓌,10.3,��
2024/06/10,17:50,0.507,0.778,0.487,0.960,0.705,0.317,0.552,0.509,��,10.2,��
2024/06/10,18:00,0.506,0.777,0.487,0.961,0.701,0.316,0.552,0.510,��,8.2,��
2024/06/10,18:10,0.507,0.777,0.487,0.958,0.705,0.315,0.551,0.509,��,8.6,��
2024/06/10,18:20,0.504,0.776,0.487,0.959,0.703,0.316,0.551,0.508,��,8.3,��
2024/06/10,18:30,0.505,0.777,0.486,0.962,0.704,0.317,0.551,0.509,��,8.1,��
2024/06/10,18:40,0.507,0.778,0.488,0.961,0.704,0.317,0.551,0.510,��,7.3,��
2024/06/10,18:50,0.504,0.780,0.487,0.961,0.705,0.314,0.550,0.510,��,7.3,��
2024/06/10,19:00,0.506,0.779,0.485,0.962,0.705,0.315,0.552,0.512,��,7.8,��
2024/06/10,19:10,0.505,0.780,0.486,0.962,0.704,0.316,0.552,0.513,��,8.4,��
2024/06/10,19:20,0.506,0.780,0.486,0.961,0.705,0.317,0.552,0.511,��,8.2,��
2024/06/10,19:30,0.506,0.779,0.487,0.961,0.705,0.317,0.553,0.509,��,8.6,��
2024/06/10,19:40,0.505,0.780,0.486,0.964,0.705,0.316,0.551,0.511,��,7.7,��
2024/06/10,19:50,0.506,0.780,0.487,0.963,0.703,0.316,0.552,0.512,��,8.2,��
2024/06/10,20:00,0.507,0.781,0.487,0.965,0.705,0.316,0.552,0.511,��,6.9,��
2024/06/10,20:10,0.506,0.779,0.487,0.963,0.706,0.318,0.553,0.511,��,7.9,��
2024/06/10,20:20,0.505,0.780,0.486,0.963,0.709,0.318,0.553,0.512,��,7.2,��
2024/06/10,20:30,0.504,0.781,0.487,0.965,0.706,0.316,0.553,0.511,��,6.3,��
2024/06/10,20:40,0.505,0.782,0.488,0.963,0.707,0.316,0.552,0.511,��,6.6,��
2024/06/10,20:50,0.506,0.779,0.487,0.964,0.708,0.317,0.554,0.511,��,6.3,��
2024/06/10,21:00,0.506,0.779,0.489,0.963,0.707,0.317,0.553,0.511,��,7.0,��
2024/06/10,21:10,0.506,0.780,0.490,0.963,0.706,0.318,0.553,0.513,��,6.5,��
2024/06/10,21:20,0.506,0.782,0.489,0.964,0.707,0.317,0.553,0.511,��,6.1,��
2024/06/10,21:30,0.505,0.779,0.490,0.963,0.707,0.316,0.554,0.510,��,5.9,��
2024/06/10,21:40,0.507,0.781,0.491,0.962,0.708,0.317,0.554,0.511,��,6.2,��
2024/06/10,21:50,0.506,0.780,0.490,0.963,0.710,0.317,0.554,0.510,��,6.3,��
2024/06/10,22:00,0.505,0.780,0.488,0.963,0.707,0.317,0.555,0.511,��,6.7,��
2024/06/10,22:10,0.505,0.781,0.489,0.963,0.707,0.317,0.553,0.511,��,6.3,��
2024/06/10,22:20,0.507,0.780,0.491,0.961,0.707,0.317,0.555,0.512,��,5.3,��
2024/06/10,22:30,0.506,0.778,0.489,0.963,0.707,0.316,0.555,0.509,��,6.0,��
2024/06/10,22:40,0.508,0.779,0.489,0.961,0.709,0.318,0.553,0.511,��,5.1,��
2024/06/10,22:50,0.506,0.780,0.488,0.962,0.709,0.317,0.552,0.511,��,6.1,��
2024/06/10,23:00,0.507,0.780,0.489,0.964,0.705,0.317,0.554,0.511,��,6.8,��
2024/06/10,23:10,0.507,0.782,0.489,0.965,0.706,0.319,0.553,0.511,��,5.4,��
2024/06/10,23:20,0.508,0.780,0.489,0.962,0.708,0.318,0.554,0.512,��,5.6,��
2024/06/10,23:30,0.507,0.779,0.491,0.963,0.708,0.317,0.555,0.510,��쐼,5.2,��
2024/06/10,23:40,0.506,0.779,0.489,0.962,0.707,0.316,0.556,0.510,��쐼,4.7,��
2024/06/10,23:50,0.505,0.779,0.491,0.964,0.707,0.318,0.555,0.511,��쐼,4.2,��
